This is the latest recevied weather packets stored in our database for station/object KC5TIL-3. If no packets are shown the sender has not sent any weather packets the latest 10 day(s).
| Time | Temp. | Humidity | Pressure | Rain* | Wind** | Luminosity | Snow |
|---|---|---|---|---|---|---|---|
| 1787649058 | 30° C | 18% | 1010.8 hPa | 0 mm | 3.58 m/s, 201° | - | - |
| 1787648755 | 30° C | 18% | 1010.8 hPa | 0 mm | 3.13 m/s, 188° | - | - |
| 1787648457 | 30° C | 16% | 1010.8 hPa | 0 mm | 3.13 m/s, 216° | - | - |
| 1787648155 | 30° C | 16% | 1010.8 hPa | 0 mm | 3.58 m/s, 213° | - | - |
| 1787647857 | 30° C | 16% | 1010.8 hPa | 0 mm | 3.58 m/s, 156° | - | - |
| 1787647559 | 30° C | 16% | 1009.8 hPa | 0 mm | 3.13 m/s, 165° | - | - |
| 1787647258 | 30° C | 16% | 1009.8 hPa | 0 mm | 3.13 m/s, 200° | - | - |
| 1787646960 | 30° C | 16% | 1009.8 hPa | 0 mm | 3.13 m/s, 191° | - | - |
| 1787646656 | 30° C | 16% | 1009.8 hPa | 0 mm | 3.13 m/s, 215° | - | - |
| 1787646355 | 30° C | 16% | 1009.8 hPa | 0 mm | 3.58 m/s, 225° | - | - |
| 1787646057 | 30° C | 16% | 1009.8 hPa | 0 mm | 3.13 m/s, 198° | - | - |
| 1787645759 | 30.56° C | 16% | 1009.8 hPa | 0 mm | 3.58 m/s, 147° | - | - |
| 1787645457 | 30.56° C | 16% | 1009.8 hPa | 0 mm | 4.92 m/s, 214° | - | - |
| 1787645155 | 30.56° C | 13% | 1009.8 hPa | 0 mm | 4.02 m/s, 228° | - | - |
| 1787644856 | 30.56° C | 13% | 1009.8 hPa | 0 mm | 3.13 m/s, 151° | - | - |
| 1787644555 | 30.56° C | 13% | 1009.8 hPa | 0 mm | 3.58 m/s, 171° | - | - |
| 1787644252 | 30.56° C | 13% | 1009.8 hPa | 0 mm | 3.58 m/s, 184° | - | - |
| 1787643954 | 30.56° C | 13% | 1009.8 hPa | 0 mm | 4.47 m/s, 210° | - | - |
| 1787643653 | 30.56° C | 13% | 1009.8 hPa | 0 mm | 3.58 m/s, 139° | - | - |
| 1787643355 | 31.11° C | 13% | 1009.8 hPa | 0 mm | 4.02 m/s, 205° | - | - |
| 1787643057 | 31.11° C | 13% | 1009.8 hPa | 0 mm | 4.92 m/s, 210° | - | - |
| 1787642750 | 31.11° C | 13% | 1009.8 hPa | 0 mm | 4.02 m/s, 216° | - | - |
| 1787642452 | 31.11° C | 13% | 1009.8 hPa | 0 mm | 4.02 m/s, 195° | - | - |
| 1787642153 | 31.11° C | 13% | 1009.8 hPa | 0 mm | 4.47 m/s, 210° | - | - |
| 1787641852 | 31.67° C | 12% | 1009.8 hPa | 0 mm | 3.13 m/s, 211° | - | - |
* Rain latest hour (hover to see other rain measurements)
** Current wind speed in m/s (hover to see current wind gust speed)